Time,TemperatureF,DewpointF,PressureIn,WindDirection,WindDirectionDegrees,WindSpeedMPH,WindSpeedGustMPH,Humidity,HourlyPrecipIn,Conditions,Clouds,dailyrainin,SoftwareType,DateUTC
2013-02-23 00:00:00,19.7,17.0,30.14,SE,137,1.0,2.0,89,0.00,,,0.08,WUHU216DAVISVP2,2013-02-23 06:00:00,
2013-02-23 00:05:00,19.7,17.0,30.14,SE,137,1.0,2.0,89,0.00,,,0.00,WUHU216DAVISVP2,2013-02-23 06:05:00,
2013-02-23 00:10:00,19.8,17.1,30.13,SE,137,2.0,3.0,89,0.00,,,0.00,WUHU216DAVISVP2,2013-02-23 06:10:00,
2013-02-23 00:15:00,19.9,17.2,30.14,SE,137,0.0,3.0,89,0.00,,,0.00,WUHU216DAVISVP2,2013-02-23 06:15:00,
2013-02-23 00:21:00,19.9,17.2,30.14,SE,137,2.0,3.0,89,0.00,,,0.00,WUHU216DAVISVP2,2013-02-23 06:21:00,
2013-02-23 00:26:00,20.0,17.3,30.14,SE,137,0.0,3.0,89,0.00,,,0.00,WUHU216DAVISVP2,2013-02-23 06:26:00,
2013-02-23 00:31:00,20.0,17.2,30.14,SE,137,1.0,3.0,89,0.00,,,0.00,WUHU216DAVISVP2,2013-02-23 06:31:00,
2013-02-23 00:36:00,20.0,17.0,30.14,SE,137,1.0,3.0,88,0.00,,,0.00,WUHU216DAVISVP2,2013-02-23 06:36:00,
2013-02-23 00:41:00,19.8,16.8,30.14,SE,137,1.0,3.0,88,0.00,,,0.00,WUHU216DAVISVP2,2013-02-23 06:41:00,
2013-02-23 00:46:00,19.8,17.0,30.13,SE,137,0.0,3.0,89,0.00,,,0.00,WUHU216DAVISVP2,2013-02-23 06:46:00,
2013-02-23 00:51:00,20.0,17.2,30.13,SE,137,0.0,3.0,89,0.00,,,0.00,WUHU216DAVISVP2,2013-02-23 06:51:00,
2013-02-23 00:56:00,20.2,17.4,30.13,SE,137,0.0,3.0,89,0.00,,,0.00,WUHU216DAVISVP2,2013-02-23 06:56:00,
2013-02-23 01:01:00,20.3,17.5,30.13,SE,137,1.0,3.0,89,0.00,,,0.00,WUHU216DAVISVP2,2013-02-23 07:01:00,
2013-02-23 01:06:00,20.4,17.4,30.13,SE,137,1.0,3.0,88,0.00,,,0.00,WUHU216DAVISVP2,2013-02-23 07:06:00,
2013-02-23 01:11:00,20.4,17.4,30.13,SE,137,1.0,4.0,88,0.00,,,0.00,WUHU216DAVISVP2,2013-02-23 07:11:00,
2013-02-23 01:16:00,20.5,17.5,30.13,SE,137,1.0,4.0,88,0.00,,,0.00,WUHU216DAVISVP2,2013-02-23 07:16:00,
2013-02-23 01:21:00,20.4,17.4,30.13,SE,137,3.0,4.0,88,0.00,,,0.00,WUHU216DAVISVP2,2013-02-23 07:21:00,
2013-02-23 01:26:00,20.3,17.0,30.13,SE,137,1.0,4.0,87,0.00,,,0.00,WUHU216DAVISVP2,2013-02-23 07:26:00,
2013-02-23 01:31:00,20.1,17.1,30.13,SE,137,0.0,3.0,88,0.00,,,0.00,WUHU216DAVISVP2,2013-02-23 07:31:00,
2013-02-23 01:36:00,20.0,17.0,30.13,SE,137,1.0,3.0,88,0.00,,,0.00,WUHU216DAVISVP2,2013-02-23 07:36:00,
2013-02-23 01:41:00,20.1,17.1,30.13,SE,137,2.0,3.0,88,0.00,,,0.00,WUHU216DAVISVP2,2013-02-23 07:41:00,
2013-02-23 01:46:00,20.1,17.1,30.13,SE,137,0.0,3.0,88,0.00,,,0.00,WUHU216DAVISVP2,2013-02-23 07:46:00,
2013-02-23 01:51:00,20.1,17.1,30.13,SE,137,1.0,3.0,88,0.00,,,0.00,WUHU216DAVISVP2,2013-02-23 07:51:00,
2013-02-23 01:56:00,20.1,17.1,30.12,SE,137,1.0,3.0,88,0.00,,,0.00,WUHU216DAVISVP2,2013-02-23 07:56:00,
2013-02-23 02:03:00,20.1,17.0,30.12,SE,137,0.0,2.0,88,0.00,,,0.00,WUHU216DAVISVP2,2013-02-23 08:03:00,
2013-02-23 02:08:00,19.9,16.8,30.12,SE,137,0.0,2.0,88,0.00,,,0.00,WUHU216DAVISVP2,2013-02-23 08:08:00,
2013-02-23 02:13:00,19.7,16.7,30.12,SE,137,0.0,2.0,88,0.00,,,0.00,WUHU216DAVISVP2,2013-02-23 08:13:00,
2013-02-23 02:18:00,19.5,16.5,30.12,SE,137,0.0,2.0,88,0.00,,,0.00,WUHU216DAVISVP2,2013-02-23 08:18:00,
2013-02-23 02:23:00,19.4,16.4,30.12,SE,137,0.0,1.0,88,0.00,,,0.00,WUHU216DAVISVP2,2013-02-23 08:23:00,
2013-02-23 02:28:00,19.2,16.2,30.12,SE,137,0.0,1.0,88,0.00,,,0.00,WUHU216DAVISVP2,2013-02-23 08:28:00,
2013-02-23 02:33:00,19.0,16.3,30.12,SE,137,0.0,1.0,89,0.00,,,0.00,WUHU216DAVISVP2,2013-02-23 08:33:00,
2013-02-23 02:38:00,18.8,16.1,30.12,SE,137,0.0,1.0,89,0.00,,,0.00,WUHU216DAVISVP2,2013-02-23 08:38:00,
2013-02-23 02:43:00,18.8,16.1,30.12,SE,137,0.0,1.0,89,0.00,,,0.00,WUHU216DAVISVP2,2013-02-23 08:43:00,
2013-02-23 02:48:00,19.1,16.6,30.11,SE,137,0.0,1.0,90,0.00,,,0.00,WUHU216DAVISVP2,2013-02-23 08:48:00,
2013-02-23 02:53:00,19.1,16.6,30.10,SE,137,0.0,2.0,90,0.00,,,0.00,WUHU216DAVISVP2,2013-02-23 08:53:00,
2013-02-23 02:58:00,19.2,16.7,30.10,SE,137,0.0,2.0,90,0.00,,,0.00,WUHU216DAVISVP2,2013-02-23 08:58:00,
2013-02-23 03:03:00,19.2,16.5,30.10,SE,137,0.0,2.0,89,0.00,,,0.00,WUHU216DAVISVP2,2013-02-23 09:03:00,
2013-02-23 03:08:00,19.1,16.4,30.10,SE,137,0.0,2.0,89,0.00,,,0.00,WUHU216DAVISVP2,2013-02-23 09:08:00,
2013-02-23 03:13:00,19.0,16.3,30.10,SE,137,0.0,0.0,89,0.00,,,0.00,WUHU216DAVISVP2,2013-02-23 09:13:00,
2013-02-23 03:18:00,18.9,16.1,30.10,SE,137,0.0,0.0,89,0.00,,,0.00,WUHU216DAVISVP2,2013-02-23 09:18:00,
2013-02-23 03:23:00,18.9,16.1,30.10,SE,137,0.0,0.0,89,0.00,,,0.00,WUHU216DAVISVP2,2013-02-23 09:23:00,
2013-02-23 03:28:00,18.9,16.1,30.10,SE,137,0.0,0.0,89,0.00,,,0.00,WUHU216DAVISVP2,2013-02-23 09:28:00,
2013-02-23 03:33:00,18.8,16.1,30.10,SE,137,0.0,0.0,89,0.00,,,0.00,WUHU216DAVISVP2,2013-02-23 09:33:00,
2013-02-23 03:38:00,18.7,16.0,30.10,SE,137,0.0,0.0,89,0.00,,,0.00,WUHU216DAVISVP2,2013-02-23 09:38:00,
2013-02-23 03:43:00,18.6,15.8,30.09,SE,137,0.0,0.0,89,0.00,,,0.00,WUHU216DAVISVP2,2013-02-23 09:43:00,
2013-02-23 03:48:00,18.6,15.8,30.09,SE,137,0.0,0.0,89,0.00,,,0.00,WUHU216DAVISVP2,2013-02-23 09:48:00,
2013-02-23 03:53:00,18.6,15.9,30.09,SE,137,0.0,0.0,89,0.00,,,0.00,WUHU216DAVISVP2,2013-02-23 09:53:00,
2013-02-23 03:58:00,18.5,15.8,30.09,SE,137,0.0,0.0,89,0.00,,,0.00,WUHU216DAVISVP2,2013-02-23 09:58:00,
2013-02-23 04:03:00,18.6,16.1,30.09,SE,137,2.0,2.0,90,0.00,,,0.00,WUHU216DAVISVP2,2013-02-23 10:03:00,
2013-02-23 04:08:00,18.8,16.3,30.09,SE,137,2.0,3.0,90,0.00,,,0.00,WUHU216DAVISVP2,2013-02-23 10:08:00,
2013-02-23 04:13:00,18.9,16.1,30.09,SE,137,0.0,3.0,89,0.00,,,0.00,WUHU216DAVISVP2,2013-02-23 10:13:00,
2013-02-23 04:18:00,19.0,16.3,30.09,SE,137,2.0,3.0,89,0.00,,,0.00,WUHU216DAVISVP2,2013-02-23 10:18:00,
2013-02-23 04:23:00,19.1,16.0,30.09,SE,137,3.0,3.0,88,0.00,,,0.00,WUHU216DAVISVP2,2013-02-23 10:23:00,
2013-02-23 04:28:00,19.0,16.0,30.09,SE,137,2.0,3.0,88,0.00,,,0.00,WUHU216DAVISVP2,2013-02-23 10:28:00,
2013-02-23 04:33:00,18.9,15.9,30.09,SE,137,2.0,3.0,88,0.00,,,0.00,WUHU216DAVISVP2,2013-02-23 10:33:00,
2013-02-23 04:38:00,18.8,15.8,30.09,SE,137,2.0,3.0,88,0.00,,,0.00,WUHU216DAVISVP2,2013-02-23 10:38:00,
2013-02-23 04:43:00,18.8,15.8,30.09,SE,137,1.0,3.0,88,0.00,,,0.00,WUHU216DAVISVP2,2013-02-23 10:43:00,
2013-02-23 04:48:00,18.9,15.9,30.09,SE,137,1.0,3.0,88,0.00,,,0.00,WUHU216DAVISVP2,2013-02-23 10:48:00,
2013-02-23 04:53:00,18.9,15.9,30.09,SE,137,0.0,3.0,88,0.00,,,0.00,WUHU216DAVISVP2,2013-02-23 10:53:00,
2013-02-23 04:58:00,18.9,15.9,30.09,SE,137,1.0,3.0,88,0.00,,,0.00,WUHU216DAVISVP2,2013-02-23 10:58:00,
2013-02-23 05:03:00,19.1,16.1,30.09,SE,137,3.0,4.0,88,0.00,,,0.00,WUHU216DAVISVP2,2013-02-23 11:03:00,
2013-02-23 05:08:00,19.1,15.8,30.09,SE,137,0.0,4.0,87,0.00,,,0.00,WUHU216DAVISVP2,2013-02-23 11:08:00,
2013-02-23 05:13:00,19.0,15.8,30.08,SE,137,0.0,4.0,87,0.00,,,0.00,WUHU216DAVISVP2,2013-02-23 11:13:00,
2013-02-23 05:18:00,19.1,15.8,30.09,SE,137,0.0,4.0,87,0.00,,,0.00,WUHU216DAVISVP2,2013-02-23 11:18:00,
2013-02-23 05:23:00,18.9,15.6,30.08,SE,137,0.0,3.0,87,0.00,,,0.00,WUHU216DAVISVP2,2013-02-23 11:23:00,
2013-02-23 05:28:00,18.8,15.6,30.08,SE,137,0.0,1.0,87,0.00,,,0.00,WUHU216DAVISVP2,2013-02-23 11:28:00,
2013-02-23 05:33:00,18.8,15.5,30.08,SE,137,0.0,0.0,87,0.00,,,0.00,WUHU216DAVISVP2,2013-02-23 11:33:00,
2013-02-23 05:38:00,18.4,15.1,30.09,SE,137,0.0,0.0,87,0.00,,,0.00,WUHU216DAVISVP2,2013-02-23 11:38:00,
2013-02-23 05:43:00,18.1,14.9,30.09,SE,137,0.0,0.0,87,0.00,,,0.00,WUHU216DAVISVP2,2013-02-23 11:43:00,
2013-02-23 05:48:00,18.1,15.1,30.08,SE,137,0.0,0.0,88,0.00,,,0.00,WUHU216DAVISVP2,2013-02-23 11:48:00,
2013-02-23 05:53:00,18.1,15.3,30.08,SE,137,0.0,0.0,89,0.00,,,0.00,WUHU216DAVISVP2,2013-02-23 11:53:00,
2013-02-23 05:58:00,18.1,15.4,30.08,SE,137,0.0,2.0,89,0.00,,,0.00,WUHU216DAVISVP2,2013-02-23 11:58:00,
2013-02-23 06:03:00,18.2,15.4,30.07,SE,137,0.0,2.0,89,0.00,,,0.00,WUHU216DAVISVP2,2013-02-23 12:03:00,
2013-02-23 06:08:00,18.3,15.5,30.06,SE,137,0.0,3.0,89,0.00,,,0.00,WUHU216DAVISVP2,2013-02-23 12:08:00,
2013-02-23 06:13:00,18.4,15.7,30.06,SE,137,2.0,3.0,89,0.00,,,0.00,WUHU216DAVISVP2,2013-02-23 12:13:00,
2013-02-23 06:18:00,18.5,15.7,30.07,SE,137,0.0,3.0,89,0.00,,,0.00,WUHU216DAVISVP2,2013-02-23 12:18:00,
2013-02-23 06:23:00,18.6,15.6,30.06,SE,137,0.0,3.0,88,0.00,,,0.00,WUHU216DAVISVP2,2013-02-23 12:23:00,
2013-02-23 06:28:00,18.6,15.6,30.07,SE,137,0.0,3.0,88,0.00,,,0.00,WUHU216DAVISVP2,2013-02-23 12:28:00,
2013-02-23 06:33:00,18.7,15.7,30.07,SE,137,0.0,1.0,88,0.00,,,0.00,WUHU216DAVISVP2,2013-02-23 12:33:00,
2013-02-23 06:38:00,18.7,15.7,30.08,SE,137,0.0,2.0,88,0.00,,,0.00,WUHU216DAVISVP2,2013-02-23 12:38:00,
2013-02-23 06:43:00,18.6,15.6,30.08,SE,137,0.0,2.0,88,0.00,,,0.00,WUHU216DAVISVP2,2013-02-23 12:43:00,
2013-02-23 06:48:00,18.5,15.5,30.08,SE,137,0.0,2.0,88,0.00,,,0.00,WUHU216DAVISVP2,2013-02-23 12:48:00,
2013-02-23 06:53:00,18.4,15.4,30.08,SE,137,0.0,2.0,88,0.00,,,0.00,WUHU216DAVISVP2,2013-02-23 12:53:00,
2013-02-23 06:58:00,18.2,15.2,30.08,SE,137,0.0,0.0,88,0.00,,,0.00,WUHU216DAVISVP2,2013-02-23 12:58:00,
2013-02-23 07:03:00,18.0,15.0,30.08,SE,137,0.0,1.0,88,0.00,,,0.00,WUHU216DAVISVP2,2013-02-23 13:03:00,
2013-02-23 07:08:00,17.7,14.7,30.08,SE,137,0.0,1.0,88,0.00,,,0.00,WUHU216DAVISVP2,2013-02-23 13:08:00,
2013-02-23 07:13:00,17.7,14.7,30.08,SE,137,0.0,1.0,88,0.00,,,0.00,WUHU216DAVISVP2,2013-02-23 13:13:00,
2013-02-23 07:18:00,17.7,15.0,30.08,SE,137,0.0,1.0,89,0.00,,,0.00,WUHU216DAVISVP2,2013-02-23 13:18:00,
2013-02-23 07:23:00,17.6,14.9,30.08,SE,137,0.0,0.0,89,0.00,,,0.00,WUHU216DAVISVP2,2013-02-23 13:23:00,
2013-02-23 07:28:00,17.8,15.0,30.08,SE,137,0.0,0.0,89,0.00,,,0.00,WUHU216DAVISVP2,2013-02-23 13:28:00,
2013-02-23 07:33:00,17.9,15.4,30.07,SE,137,0.0,0.0,90,0.00,,,0.00,WUHU216DAVISVP2,2013-02-23 13:33:00,
2013-02-23 07:38:00,18.0,15.6,30.07,SE,137,0.0,0.0,90,0.00,,,0.00,WUHU216DAVISVP2,2013-02-23 13:38:00,
2013-02-23 07:43:00,18.3,15.8,30.07,SE,137,0.0,0.0,90,0.00,,,0.00,WUHU216DAVISVP2,2013-02-23 13:43:00,
2013-02-23 07:48:00,18.5,16.0,30.07,SE,137,0.0,0.0,90,0.00,,,0.00,WUHU216DAVISVP2,2013-02-23 13:48:00,
2013-02-23 07:53:00,19.0,16.5,30.07,SE,137,0.0,0.0,90,0.00,,,0.00,WUHU216DAVISVP2,2013-02-23 13:53:00,
2013-02-23 07:58:00,19.5,17.2,30.08,SE,137,0.0,0.0,91,0.00,,,0.00,WUHU216DAVISVP2,2013-02-23 13:58:00,
2013-02-23 08:03:00,20.0,17.7,30.08,SE,137,0.0,0.0,91,0.00,,,0.00,WUHU216DAVISVP2,2013-02-23 14:03:00,
2013-02-23 08:08:00,20.5,18.0,30.08,SE,137,0.0,0.0,90,0.00,,,0.00,WUHU216DAVISVP2,2013-02-23 14:08:00,
2013-02-23 08:13:00,20.7,17.6,30.08,SE,137,0.0,0.0,88,0.00,,,0.00,WUHU216DAVISVP2,2013-02-23 14:13:00,
2013-02-23 08:18:00,20.8,17.5,30.08,SE,137,0.0,0.0,87,0.00,,,0.00,WUHU216DAVISVP2,2013-02-23 14:18:00,
2013-02-23 08:23:00,20.9,17.3,30.08,SE,137,0.0,0.0,86,0.00,,,0.00,WUHU216DAVISVP2,2013-02-23 14:23:00,
2013-02-23 08:28:00,20.9,17.1,30.09,SE,137,0.0,0.0,85,0.00,,,0.00,WUHU216DAVISVP2,2013-02-23 14:28:00,
2013-02-23 08:33:00,21.0,17.2,30.09,SE,137,0.0,0.0,85,0.00,,,0.00,WUHU216DAVISVP2,2013-02-23 14:33:00,
2013-02-23 08:38:00,21.1,17.3,30.09,SE,137,0.0,0.0,85,0.00,,,0.00,WUHU216DAVISVP2,2013-02-23 14:38:00,
2013-02-23 08:43:00,21.2,17.4,30.08,SE,137,0.0,0.0,85,0.00,,,0.00,WUHU216DAVISVP2,2013-02-23 14:43:00,
2013-02-23 08:48:00,21.3,17.5,30.09,SE,137,0.0,2.0,85,0.00,,,0.00,WUHU216DAVISVP2,2013-02-23 14:48:00,
2013-02-23 08:53:00,21.3,17.0,30.09,SE,137,0.0,3.0,83,0.00,,,0.00,WUHU216DAVISVP2,2013-02-23 14:53:00,
2013-02-23 08:58:00,21.5,17.4,30.09,SE,137,1.0,3.0,84,0.00,,,0.00,WUHU216DAVISVP2,2013-02-23 14:58:00,
2013-02-23 09:03:00,21.5,16.9,30.09,SE,137,2.0,3.0,82,0.00,,,0.00,WUHU216DAVISVP2,2013-02-23 15:03:00,
2013-02-23 09:08:00,21.4,16.5,30.10,SE,137,1.0,4.0,81,0.00,,,0.00,WUHU216DAVISVP2,2013-02-23 15:08:00,
2013-02-23 09:13:00,21.3,16.7,30.10,SE,137,0.0,4.0,82,0.00,,,0.00,WUHU216DAVISVP2,2013-02-23 15:13:00,
2013-02-23 09:18:00,21.4,17.0,30.10,SE,137,1.0,4.0,83,0.00,,,0.00,WUHU216DAVISVP2,2013-02-23 15:18:00,
2013-02-23 09:23:00,21.4,16.4,30.09,SE,137,0.0,4.0,81,0.00,,,0.00,WUHU216DAVISVP2,2013-02-23 15:23:00,
2013-02-23 09:28:00,21.5,16.6,30.10,SE,137,2.0,3.0,81,0.00,,,0.00,WUHU216DAVISVP2,2013-02-23 15:28:00,
2013-02-23 09:33:00,21.6,16.4,30.10,SE,137,2.0,3.0,80,0.00,,,0.00,WUHU216DAVISVP2,2013-02-23 15:33:00,
2013-02-23 09:38:00,21.5,16.9,30.10,SE,137,1.0,4.0,82,0.00,,,0.00,WUHU216DAVISVP2,2013-02-23 15:38:00,
2013-02-23 09:43:00,21.6,17.2,30.10,SE,137,3.0,4.0,83,0.00,,,0.00,WUHU216DAVISVP2,2013-02-23 15:43:00,
2013-02-23 09:48:00,21.6,16.9,30.10,SE,137,2.0,4.0,82,0.00,,,0.00,WUHU216DAVISVP2,2013-02-23 15:48:00,
2013-02-23 09:53:00,21.7,16.5,30.10,SE,137,4.0,4.0,80,0.00,,,0.00,WUHU216DAVISVP2,2013-02-23 15:53:00,
2013-02-23 09:58:00,21.8,16.3,30.10,NNE,25,0.0,4.0,79,0.00,,,0.00,WUHU216DAVISVP2,2013-02-23 15:58:00,
2013-02-23 10:03:00,21.9,16.4,30.10,NNE,25,0.0,5.0,79,0.00,,,0.00,WUHU216DAVISVP2,2013-02-23 16:03:00,
2013-02-23 10:08:00,22.2,16.4,30.10,NNE,25,0.0,5.0,78,0.00,,,0.00,WUHU216DAVISVP2,2013-02-23 16:08:00,
2013-02-23 10:13:00,22.3,16.8,30.09,NNE,25,0.0,5.0,79,0.00,,,0.00,WUHU216DAVISVP2,2013-02-23 16:13:00,
2013-02-23 10:18:00,22.5,16.4,30.09,NNE,25,1.0,5.0,77,0.00,,,0.00,WUHU216DAVISVP2,2013-02-23 16:18:00,
2013-02-23 10:23:00,22.4,15.7,30.10,NNE,25,0.0,5.0,75,0.00,,,0.00,WUHU216DAVISVP2,2013-02-23 16:23:00,
2013-02-23 10:28:00,22.4,15.7,30.10,NNE,25,3.0,5.0,75,0.00,,,0.00,WUHU216DAVISVP2,2013-02-23 16:28:00,
2013-02-23 10:33:00,22.4,15.4,30.10,NNE,25,1.0,5.0,74,0.00,,,0.00,WUHU216DAVISVP2,2013-02-23 16:33:00,
2013-02-23 10:38:00,22.6,15.9,30.10,NNE,25,2.0,4.0,75,0.00,,,0.00,WUHU216DAVISVP2,2013-02-23 16:38:00,
2013-02-23 10:43:00,22.8,16.1,30.10,NNE,25,1.0,4.0,75,0.01,,,0.01,WUHU216DAVISVP2,2013-02-23 16:43:00,
2013-02-23 10:48:00,23.2,16.7,30.10,NNE,25,1.0,4.0,76,0.01,,,0.01,WUHU216DAVISVP2,2013-02-23 16:48:00,
2013-02-23 10:53:00,23.6,16.8,30.09,NNE,25,0.0,4.0,75,0.01,,,0.01,WUHU216DAVISVP2,2013-02-23 16:53:00,
2013-02-23 10:58:00,23.9,16.2,30.09,NNE,25,0.0,4.0,72,0.01,,,0.01,WUHU216DAVISVP2,2013-02-23 16:58:00,
2013-02-23 11:03:00,24.1,16.4,30.09,NNE,32,3.0,5.0,72,0.01,,,0.01,WUHU216DAVISVP2,2013-02-23 17:03:00,
2013-02-23 11:08:00,24.2,16.5,30.09,East,88,3.0,6.0,72,0.01,,,0.01,WUHU216DAVISVP2,2013-02-23 17:08:00,
2013-02-23 11:13:00,24.4,15.4,30.10,ESE,108,3.0,6.0,68,0.01,,,0.01,WUHU216DAVISVP2,2013-02-23 17:13:00,
2013-02-23 11:18:00,24.9,16.6,30.10,East,87,2.0,9.0,70,0.02,,,0.02,WUHU216DAVISVP2,2013-02-23 17:18:00,
2013-02-23 11:23:00,25.1,15.8,30.10,East,91,2.0,9.0,67,0.02,,,0.02,WUHU216DAVISVP2,2013-02-23 17:23:00,
2013-02-23 11:28:00,25.1,15.7,30.09,ESE,119,1.0,8.0,67,0.02,,,0.02,WUHU216DAVISVP2,2013-02-23 17:28:00,
2013-02-23 11:33:00,25.2,15.5,30.10,ESE,119,0.0,8.0,66,0.02,,,0.02,WUHU216DAVISVP2,2013-02-23 17:33:00,
2013-02-23 11:38:00,25.6,16.6,30.09,East,87,2.0,8.0,68,0.02,,,0.02,WUHU216DAVISVP2,2013-02-23 17:38:00,
2013-02-23 11:43:00,25.7,15.6,30.09,East,100,1.0,7.0,65,0.01,,,0.02,WUHU216DAVISVP2,2013-02-23 17:43:00,
2013-02-23 11:48:00,25.8,16.1,30.09,East,100,3.0,7.0,66,0.02,,,0.03,WUHU216DAVISVP2,2013-02-23 17:48:00,
2013-02-23 11:53:00,26.0,15.5,30.09,SE,128,0.0,9.0,64,0.02,,,0.03,WUHU216DAVISVP2,2013-02-23 17:53:00,
2013-02-23 11:58:00,26.0,15.9,30.09,East,79,8.0,9.0,65,0.02,,,0.03,WUHU216DAVISVP2,2013-02-23 17:58:00,
2013-02-23 12:03:00,25.9,15.4,30.09,East,86,3.0,9.0,64,0.02,,,0.03,WUHU216DAVISVP2,2013-02-23 18:03:00,
2013-02-23 12:08:00,26.0,15.9,30.09,SSE,148,7.0,9.0,65,0.02,,,0.03,WUHU216DAVISVP2,2013-02-23 18:08:00,
2013-02-23 12:13:00,26.5,16.0,30.08,SSE,160,7.0,9.0,64,0.02,,,0.03,WUHU216DAVISVP2,2013-02-23 18:13:00,
2013-02-23 12:18:00,26.8,16.3,30.08,ESE,106,6.0,9.0,64,0.02,,,0.04,WUHU216DAVISVP2,2013-02-23 18:18:00,
2013-02-23 12:23:00,26.8,14.8,30.08,ESE,108,5.0,9.0,60,0.02,,,0.04,WUHU216DAVISVP2,2013-02-23 18:23:00,
2013-02-23 12:28:00,27.0,16.1,30.08,ESE,123,4.0,9.0,63,0.03,,,0.05,WUHU216DAVISVP2,2013-02-23 18:28:00,
2013-02-23 12:33:00,27.3,16.7,30.08,ENE,74,3.0,9.0,64,0.03,,,0.05,WUHU216DAVISVP2,2013-02-23 18:33:00,
2013-02-23 12:38:00,27.2,15.6,30.08,SE,145,2.0,9.0,61,0.03,,,0.05,WUHU216DAVISVP2,2013-02-23 18:38:00,
2013-02-23 12:43:00,27.2,16.3,30.08,East,86,1.0,9.0,63,0.04,,,0.06,WUHU216DAVISVP2,2013-02-23 18:43:00,
2013-02-23 12:49:00,27.6,16.7,30.08,ENE,77,2.0,9.0,63,0.04,,,0.07,WUHU216DAVISVP2,2013-02-23 18:49:00,
2013-02-23 12:53:00,27.8,16.5,30.08,East,100,2.0,9.0,62,0.04,,,0.07,WUHU216DAVISVP2,2013-02-23 18:53:00,
2013-02-23 12:58:00,28.3,18.1,30.08,East,85,1.0,9.0,65,0.04,,,0.07,WUHU216DAVISVP2,2013-02-23 18:58:00,
2013-02-23 13:03:00,28.6,17.7,30.07,ENE,76,4.0,9.0,63,0.05,,,0.08,WUHU216DAVISVP2,2013-02-23 19:03:00,
2013-02-23 13:08:00,28.4,17.8,30.07,ENE,58,6.0,9.0,64,0.05,,,0.08,WUHU216DAVISVP2,2013-02-23 19:08:00,
2013-02-23 13:13:00,28.7,19.2,30.07,NE,54,4.0,9.0,67,0.06,,,0.09,WUHU216DAVISVP2,2013-02-23 19:13:00,
2013-02-23 13:18:00,28.8,17.5,30.07,ESE,115,2.0,9.0,62,0.05,,,0.09,WUHU216DAVISVP2,2013-02-23 19:18:00,
2013-02-23 13:23:00,29.0,18.4,30.07,ENE,69,5.0,9.0,64,0.05,,,0.10,WUHU216DAVISVP2,2013-02-23 19:23:00,
2013-02-23 13:28:00,29.2,18.2,30.06,ENE,59,8.0,9.0,63,0.05,,,0.10,WUHU216DAVISVP2,2013-02-23 19:28:00,
2013-02-23 13:33:00,29.4,19.5,30.06,ENE,62,4.0,9.0,66,0.06,,,0.11,WUHU216DAVISVP2,2013-02-23 19:33:00,
2013-02-23 13:38:00,29.7,19.5,30.05,ENE,75,4.0,9.0,65,0.06,,,0.11,WUHU216DAVISVP2,2013-02-23 19:38:00,
2013-02-23 13:43:00,30.0,18.6,30.05,ENE,59,6.0,9.0,62,0.05,,,0.11,WUHU216DAVISVP2,2013-02-23 19:43:00,
2013-02-23 13:48:00,30.3,18.5,30.05,ENE,60,5.0,9.0,61,0.05,,,0.12,WUHU216DAVISVP2,2013-02-23 19:48:00,
2013-02-23 13:53:00,30.7,20.1,30.05,ENE,60,2.0,9.0,64,0.06,,,0.13,WUHU216DAVISVP2,2013-02-23 19:53:00,
2013-02-23 13:58:00,30.9,18.7,30.05,East,101,3.0,9.0,60,0.06,,,0.13,WUHU216DAVISVP2,2013-02-23 19:58:00,
2013-02-23 14:03:00,30.9,18.7,30.06,ENE,69,4.0,10.0,60,0.05,,,0.13,WUHU216DAVISVP2,2013-02-23 20:03:00,
2013-02-23 14:08:00,31.3,19.4,30.05,East,79,2.0,11.0,61,0.06,,,0.14,WUHU216DAVISVP2,2013-02-23 20:08:00,
2013-02-23 14:13:00,31.6,18.2,30.05,ENE,78,8.0,13.0,57,0.06,,,0.15,WUHU216DAVISVP2,2013-02-23 20:13:00,
2013-02-23 14:18:00,31.6,18.1,30.05,East,81,5.0,13.0,57,0.06,,,0.15,WUHU216DAVISVP2,2013-02-23 20:18:00,
2013-02-23 14:23:00,31.8,18.7,30.05,East,96,8.0,13.0,58,0.05,,,0.15,WUHU216DAVISVP2,2013-02-23 20:23:00,
2013-02-23 14:28:00,31.9,18.0,30.05,ESE,104,6.0,13.0,56,0.05,,,0.15,WUHU216DAVISVP2,2013-02-23 20:28:00,
2013-02-23 14:33:00,32.0,18.9,30.05,East,93,8.0,12.0,58,0.04,,,0.15,WUHU216DAVISVP2,2013-02-23 20:33:00,
2013-02-23 14:38:00,32.3,19.2,30.05,East,100,7.0,12.0,58,0.05,,,0.16,WUHU216DAVISVP2,2013-02-23 20:38:00,
2013-02-23 14:43:00,32.4,19.3,30.05,East,84,5.0,10.0,58,0.05,,,0.16,WUHU216DAVISVP2,2013-02-23 20:43:00,
2013-02-23 14:48:00,32.7,19.6,30.04,ENE,78,8.0,11.0,58,0.05,,,0.17,WUHU216DAVISVP2,2013-02-23 20:48:00,
2013-02-23 14:53:00,32.9,19.4,30.04,East,96,8.0,11.0,57,0.05,,,0.18,WUHU216DAVISVP2,2013-02-23 20:53:00,
2013-02-23 14:58:00,33.1,19.1,30.04,ESE,113,5.0,11.0,56,0.05,,,0.18,WUHU216DAVISVP2,2013-02-23 20:58:00,
2013-02-23 15:03:00,33.2,19.6,30.04,East,82,5.0,11.0,57,0.05,,,0.18,WUHU216DAVISVP2,2013-02-23 21:03:00,
2013-02-23 15:08:00,33.7,18.8,30.04,SE,124,9.0,11.0,54,0.05,,,0.19,WUHU216DAVISVP2,2013-02-23 21:08:00,
2013-02-23 15:13:00,34.0,19.5,30.04,East,100,5.0,12.0,55,0.04,,,0.19,WUHU216DAVISVP2,2013-02-23 21:13:00,
2013-02-23 15:18:00,34.1,19.2,30.04,ESE,103,7.0,12.0,54,0.04,,,0.19,WUHU216DAVISVP2,2013-02-23 21:18:00,
2013-02-23 15:23:00,34.2,18.4,30.03,ESE,107,5.0,12.0,52,0.05,,,0.20,WUHU216DAVISVP2,2013-02-23 21:23:00,
2013-02-23 15:28:00,34.4,19.5,30.03,ESE,123,2.0,12.0,54,0.05,,,0.20,WUHU216DAVISVP2,2013-02-23 21:28:00,
2013-02-23 15:33:00,34.6,19.7,30.03,ESE,107,3.0,11.0,54,0.04,,,0.20,WUHU216DAVISVP2,2013-02-23 21:33:00,
2013-02-23 15:38:00,35.0,19.5,30.03,ESE,118,8.0,11.0,53,0.05,,,0.21,WUHU216DAVISVP2,2013-02-23 21:38:00,
2013-02-23 15:43:00,34.8,19.4,30.03,East,98,2.0,11.0,53,0.05,,,0.21,WUHU216DAVISVP2,2013-02-23 21:43:00,
2013-02-23 15:48:00,35.1,19.7,30.03,SSE,157,4.0,10.0,53,0.04,,,0.21,WUHU216DAVISVP2,2013-02-23 21:48:00,
2013-02-23 15:54:00,35.0,19.1,30.03,SSE,151,2.0,10.0,52,0.03,,,0.21,WUHU216DAVISVP2,2013-02-23 21:54:00,
2013-02-23 15:59:00,35.2,19.7,30.02,SSE,152,7.0,11.0,53,0.04,,,0.22,WUHU216DAVISVP2,2013-02-23 21:59:00,
2013-02-23 16:04:00,35.4,19.9,30.02,SSE,155,3.0,11.0,53,0.04,,,0.22,WUHU216DAVISVP2,2013-02-23 22:04:00,
2013-02-23 16:09:00,35.6,20.1,30.02,South,187,3.0,11.0,53,0.03,,,0.22,WUHU216DAVISVP2,2013-02-23 22:09:00,
2013-02-23 16:14:00,35.7,19.8,30.01,SE,128,7.0,11.0,52,0.03,,,0.22,WUHU216DAVISVP2,2013-02-23 22:14:00,
2013-02-23 16:19:00,35.8,20.3,30.01,ESE,112,8.0,10.0,53,0.04,,,0.23,WUHU216DAVISVP2,2013-02-23 22:19:00,
2013-02-23 16:24:00,35.6,19.2,30.01,ESE,106,5.0,10.0,51,0.03,,,0.23,WUHU216DAVISVP2,2013-02-23 22:24:00,
2013-02-23 16:29:00,36.0,20.0,30.01,ESE,110,2.0,10.0,52,0.03,,,0.23,WUHU216DAVISVP2,2013-02-23 22:29:00,
2013-02-23 16:34:00,36.2,20.7,30.01,ESE,112,5.0,9.0,53,0.03,,,0.23,WUHU216DAVISVP2,2013-02-23 22:34:00,
2013-02-23 16:39:00,36.2,21.2,30.01,ESE,116,3.0,9.0,54,0.02,,,0.23,WUHU216DAVISVP2,2013-02-23 22:39:00,
2013-02-23 16:44:00,36.3,20.8,30.01,SSE,153,2.0,8.0,53,0.03,,,0.24,WUHU216DAVISVP2,2013-02-23 22:44:00,
2013-02-23 16:49:00,36.4,21.4,30.01,East,83,4.0,8.0,54,0.03,,,0.24,WUHU216DAVISVP2,2013-02-23 22:49:00,
2013-02-23 16:54:00,36.4,20.9,30.01,East,101,5.0,8.0,53,0.03,,,0.24,WUHU216DAVISVP2,2013-02-23 22:54:00,
2013-02-23 16:59:00,36.4,21.4,30.01,East,101,0.0,7.0,54,0.02,,,0.24,WUHU216DAVISVP2,2013-02-23 22:59:00,
2013-02-23 17:04:00,36.8,22.1,30.01,East,101,5.0,7.0,55,0.03,,,0.25,WUHU216DAVISVP2,2013-02-23 23:04:00,
2013-02-23 17:09:00,36.8,21.7,30.01,SE,135,2.0,8.0,54,0.03,,,0.25,WUHU216DAVISVP2,2013-02-23 23:09:00,
2013-02-23 17:14:00,36.8,21.7,30.02,SE,137,3.0,8.0,54,0.03,,,0.25,WUHU216DAVISVP2,2013-02-23 23:14:00,
2013-02-23 17:19:00,36.7,21.6,30.02,SE,137,3.0,8.0,54,0.02,,,0.25,WUHU216DAVISVP2,2013-02-23 23:19:00,
2013-02-23 17:24:00,36.7,22.0,30.02,SE,137,3.0,8.0,55,0.02,,,0.25,WUHU216DAVISVP2,2013-02-23 23:24:00,
2013-02-23 17:29:00,36.8,22.6,30.02,SSE,148,5.0,7.0,56,0.02,,,0.25,WUHU216DAVISVP2,2013-02-23 23:29:00,
2013-02-23 17:34:00,36.6,22.0,30.02,SSE,148,4.0,7.0,55,0.02,,,0.25,WUHU216DAVISVP2,2013-02-23 23:34:00,
2013-02-23 17:39:00,36.5,21.9,30.02,SSE,148,5.0,6.0,55,0.02,,,0.25,WUHU216DAVISVP2,2013-02-23 23:39:00,
2013-02-23 17:44:00,36.4,21.8,30.02,SSE,149,2.0,6.0,55,0.01,,,0.25,WUHU216DAVISVP2,2013-02-23 23:44:00,
2013-02-23 17:49:00,36.4,22.6,30.02,SSE,149,4.0,6.0,57,0.01,,,0.25,WUHU216DAVISVP2,2013-02-23 23:49:00,
2013-02-23 17:54:00,36.2,22.9,30.02,SSE,149,2.0,6.0,58,0.01,,,0.25,WUHU216DAVISVP2,2013-02-23 23:54:00,
2013-02-23 17:59:00,36.1,23.2,30.03,SSE,149,2.0,6.0,59,0.01,,,0.25,WUHU216DAVISVP2,2013-02-23 23:59:00,
2013-02-23 18:04:00,35.7,22.8,30.03,SSE,149,3.0,5.0,59,0.00,,,0.25,WUHU216DAVISVP2,2013-02-24 00:04:00,
2013-02-23 18:09:00,35.2,22.4,30.03,SSE,149,0.0,5.0,59,0.00,,,0.25,WUHU216DAVISVP2,2013-02-24 00:09:00,
2013-02-23 18:14:00,35.0,22.6,30.03,SSE,149,0.0,5.0,60,0.01,,,0.26,WUHU216DAVISVP2,2013-02-24 00:14:00,
2013-02-23 18:19:00,34.7,22.2,30.03,SSE,149,0.0,5.0,60,0.01,,,0.26,WUHU216DAVISVP2,2013-02-24 00:19:00,
2013-02-23 18:24:00,34.5,22.1,30.03,SSE,149,0.0,4.0,60,0.01,,,0.26,WUHU216DAVISVP2,2013-02-24 00:24:00,
2013-02-23 18:29:00,34.2,22.6,30.03,SSE,149,0.0,3.0,62,0.01,,,0.26,WUHU216DAVISVP2,2013-02-24 00:29:00,
2013-02-23 18:34:00,33.9,22.4,30.03,SSE,149,0.0,2.0,62,0.01,,,0.26,WUHU216DAVISVP2,2013-02-24 00:34:00,
2013-02-23 18:39:00,33.7,22.5,30.03,SSE,149,1.0,2.0,63,0.01,,,0.26,WUHU216DAVISVP2,2013-02-24 00:39:00,
2013-02-23 18:44:00,33.4,22.2,30.02,SSE,149,2.0,4.0,63,0.01,,,0.26,WUHU216DAVISVP2,2013-02-24 00:44:00,
2013-02-23 18:49:00,33.2,22.4,30.02,SSE,149,2.0,4.0,64,0.01,,,0.26,WUHU216DAVISVP2,2013-02-24 00:49:00,
2013-02-23 18:54:00,33.1,22.3,30.02,SSE,149,0.0,4.0,64,0.01,,,0.26,WUHU216DAVISVP2,2013-02-24 00:54:00,
2013-02-23 18:59:00,32.9,22.1,30.03,SSE,149,0.0,4.0,64,0.01,,,0.26,WUHU216DAVISVP2,2013-02-24 00:59:00,
2013-02-23 19:04:00,32.7,21.9,30.03,SSE,149,0.0,4.0,64,0.01,,,0.26,WUHU216DAVISVP2,2013-02-24 01:04:00,
2013-02-23 19:09:00,32.5,22.1,30.03,SSE,149,0.0,3.0,65,0.01,,,0.26,WUHU216DAVISVP2,2013-02-24 01:09:00,
2013-02-23 19:14:00,32.3,22.2,30.03,SSE,149,0.0,1.0,66,0.00,,,0.26,WUHU216DAVISVP2,2013-02-24 01:14:00,
2013-02-23 19:19:00,31.8,22.5,30.03,SSE,149,0.0,0.0,68,0.00,,,0.26,WUHU216DAVISVP2,2013-02-24 01:19:00,
2013-02-23 19:24:00,31.5,22.2,30.03,SSE,149,0.0,0.0,68,0.00,,,0.26,WUHU216DAVISVP2,2013-02-24 01:24:00,
2013-02-23 19:29:00,31.3,22.4,30.03,SSE,149,0.0,0.0,69,0.00,,,0.26,WUHU216DAVISVP2,2013-02-24 01:29:00,
2013-02-23 19:34:00,31.2,22.3,30.03,SSE,149,0.0,0.0,69,0.00,,,0.26,WUHU216DAVISVP2,2013-02-24 01:34:00,
2013-02-23 19:39:00,31.2,22.3,30.03,SSE,149,0.0,0.0,69,0.00,,,0.26,WUHU216DAVISVP2,2013-02-24 01:39:00,
2013-02-23 19:44:00,31.2,22.3,30.03,SSE,149,4.0,4.0,69,0.00,,,0.26,WUHU216DAVISVP2,2013-02-24 01:44:00,
2013-02-23 19:49:00,31.3,22.0,30.03,SSE,149,2.0,4.0,68,0.00,,,0.26,WUHU216DAVISVP2,2013-02-24 01:49:00,
2013-02-23 19:54:00,31.3,22.0,30.02,SSE,149,3.0,5.0,68,0.00,,,0.26,WUHU216DAVISVP2,2013-02-24 01:54:00,
2013-02-23 19:59:00,31.2,22.3,30.02,SSE,149,2.0,5.0,69,0.00,,,0.26,WUHU216DAVISVP2,2013-02-24 01:59:00,
2013-02-23 20:04:00,31.1,22.2,30.02,SSE,149,0.0,5.0,69,0.00,,,0.26,WUHU216DAVISVP2,2013-02-24 02:04:00,
2013-02-23 20:09:00,31.0,22.1,30.02,SSE,149,2.0,5.0,69,0.00,,,0.26,WUHU216DAVISVP2,2013-02-24 02:09:00,
2013-02-23 20:14:00,30.9,22.0,30.03,SSE,149,1.0,4.0,69,0.00,,,0.26,WUHU216DAVISVP2,2013-02-24 02:14:00,
2013-02-23 20:19:00,30.8,21.9,30.02,SSE,149,2.0,3.0,69,0.00,,,0.26,WUHU216DAVISVP2,2013-02-24 02:19:00,
2013-02-23 20:24:00,30.7,22.1,30.03,SSE,149,0.0,3.0,70,0.00,,,0.26,WUHU216DAVISVP2,2013-02-24 02:24:00,
2013-02-23 20:29:00,30.4,21.9,30.03,SSE,149,0.0,3.0,70,0.00,,,0.26,WUHU216DAVISVP2,2013-02-24 02:29:00,
2013-02-23 20:34:00,30.2,21.7,30.03,SSE,149,0.0,3.0,70,0.00,,,0.26,WUHU216DAVISVP2,2013-02-24 02:34:00,
2013-02-23 20:39:00,30.1,21.5,30.03,SSE,149,0.0,2.0,70,0.00,,,0.26,WUHU216DAVISVP2,2013-02-24 02:39:00,
2013-02-23 20:44:00,29.8,21.6,30.04,SSE,149,0.0,0.0,71,0.00,,,0.26,WUHU216DAVISVP2,2013-02-24 02:44:00,
2013-02-23 20:49:00,29.4,21.6,30.04,SSE,149,0.0,0.0,72,0.00,,,0.26,WUHU216DAVISVP2,2013-02-24 02:49:00,
2013-02-23 20:54:00,29.0,21.5,30.04,SSE,149,0.0,0.0,73,0.00,,,0.26,WUHU216DAVISVP2,2013-02-24 02:54:00,
2013-02-23 20:59:00,28.4,21.5,30.04,SSE,149,0.0,0.0,75,0.00,,,0.26,WUHU216DAVISVP2,2013-02-24 02:59:00,
2013-02-23 21:04:00,28.0,21.5,30.04,SSE,149,0.0,0.0,76,0.00,,,0.26,WUHU216DAVISVP2,2013-02-24 03:04:00,
2013-02-23 21:09:00,27.7,21.5,30.04,SSE,149,0.0,0.0,77,0.00,,,0.26,WUHU216DAVISVP2,2013-02-24 03:09:00,
2013-02-23 21:14:00,27.6,21.3,30.04,SSE,149,0.0,0.0,77,0.00,,,0.26,WUHU216DAVISVP2,2013-02-24 03:14:00,
2013-02-23 21:19:00,27.4,21.2,30.04,SSE,149,0.0,0.0,77,0.00,,,0.26,WUHU216DAVISVP2,2013-02-24 03:19:00,
2013-02-23 21:24:00,27.3,21.1,30.04,SSE,149,0.0,0.0,77,0.00,,,0.26,WUHU216DAVISVP2,2013-02-24 03:24:00,
2013-02-23 21:29:00,27.3,21.4,30.03,SSE,149,0.0,0.0,78,0.00,,,0.26,WUHU216DAVISVP2,2013-02-24 03:29:00,
2013-02-23 21:34:00,27.1,21.1,30.03,SSE,149,1.0,2.0,78,0.00,,,0.26,WUHU216DAVISVP2,2013-02-24 03:34:00,
2013-02-23 21:39:00,27.0,21.1,30.03,SSE,149,2.0,2.0,78,0.00,,,0.26,WUHU216DAVISVP2,2013-02-24 03:39:00,
2013-02-23 21:44:00,26.9,21.0,30.03,SSE,149,0.0,2.0,78,0.00,,,0.26,WUHU216DAVISVP2,2013-02-24 03:44:00,
2013-02-23 21:49:00,26.8,20.9,30.03,SSE,149,1.0,2.0,78,0.00,,,0.26,WUHU216DAVISVP2,2013-02-24 03:49:00,
2013-02-23 21:54:00,26.6,20.6,30.03,SSE,149,2.0,3.0,78,0.00,,,0.26,WUHU216DAVISVP2,2013-02-24 03:54:00,
2013-02-23 21:59:00,26.5,20.6,30.03,SSE,149,1.0,3.0,78,0.00,,,0.26,WUHU216DAVISVP2,2013-02-24 03:59:00,
2013-02-23 22:04:00,26.4,20.5,30.03,SSE,149,1.0,3.0,78,0.00,,,0.26,WUHU216DAVISVP2,2013-02-24 04:04:00,
2013-02-23 22:09:00,26.4,20.5,30.02,SSE,149,1.0,3.0,78,0.00,,,0.26,WUHU216DAVISVP2,2013-02-24 04:09:00,
2013-02-23 22:14:00,26.4,20.5,30.02,SSE,149,2.0,3.0,78,0.00,,,0.26,WUHU216DAVISVP2,2013-02-24 04:14:00,
2013-02-23 22:19:00,26.4,20.4,30.02,SSE,150,3.0,4.0,78,0.00,,,0.26,WUHU216DAVISVP2,2013-02-24 04:19:00,
2013-02-23 22:24:00,26.4,20.5,30.02,SSE,151,1.0,4.0,78,0.00,,,0.26,WUHU216DAVISVP2,2013-02-24 04:24:00,
2013-02-23 22:29:00,26.4,20.2,30.02,SSE,151,0.0,4.0,77,0.00,,,0.26,WUHU216DAVISVP2,2013-02-24 04:29:00,
2013-02-23 22:34:00,26.3,20.4,30.03,SSE,151,1.0,4.0,78,0.00,,,0.26,WUHU216DAVISVP2,2013-02-24 04:34:00,
2013-02-23 22:39:00,25.9,20.3,30.03,SSE,151,3.0,4.0,79,0.00,,,0.26,WUHU216DAVISVP2,2013-02-24 04:39:00,
2013-02-23 22:44:00,25.5,20.1,30.03,SSE,151,0.0,4.0,80,0.00,,,0.26,WUHU216DAVISVP2,2013-02-24 04:44:00,
2013-02-23 22:49:00,25.2,20.2,30.03,SSE,151,0.0,4.0,81,0.00,,,0.26,WUHU216DAVISVP2,2013-02-24 04:49:00,
2013-02-23 22:54:00,25.1,20.1,30.03,SSE,151,1.0,4.0,81,0.00,,,0.26,WUHU216DAVISVP2,2013-02-24 04:54:00,
2013-02-23 22:59:00,25.1,20.4,30.03,SSE,151,0.0,3.0,82,0.00,,,0.26,WUHU216DAVISVP2,2013-02-24 04:59:00,
2013-02-23 23:00:00,25.1,20.4,30.03,SSE,151,0.0,2.0,82,0.00,,,0.26,WUHU216DAVISVP2,2013-02-24 05:00:00,
2013-02-23 23:05:00,25.2,20.4,30.03,SSE,151,2.0,2.0,82,0.00,,,0.26,WUHU216DAVISVP2,2013-02-24 05:05:00,
2013-02-23 23:10:00,25.2,20.2,30.03,SSE,151,2.0,2.0,81,0.00,,,0.26,WUHU216DAVISVP2,2013-02-24 05:10:00,
2013-02-23 23:15:00,25.3,20.2,30.03,SSE,151,1.0,3.0,81,0.00,,,0.26,WUHU216DAVISVP2,2013-02-24 05:15:00,
2013-02-23 23:20:00,25.3,20.0,30.03,SSE,151,1.0,3.0,80,0.00,,,0.26,WUHU216DAVISVP2,2013-02-24 05:20:00,
2013-02-23 23:25:00,25.4,20.1,30.03,SSE,151,0.0,3.0,80,0.00,,,0.26,WUHU216DAVISVP2,2013-02-24 05:25:00,
2013-02-23 23:30:00,25.4,20.4,30.03,SSE,151,0.0,2.0,81,0.00,,,0.26,WUHU216DAVISVP2,2013-02-24 05:30:00,
2013-02-23 23:35:00,25.3,20.3,30.03,SSE,151,0.0,2.0,81,0.00,,,0.26,WUHU216DAVISVP2,2013-02-24 05:35:00,
2013-02-23 23:40:00,25.3,20.3,30.03,SSE,151,0.0,1.0,81,0.00,,,0.26,WUHU216DAVISVP2,2013-02-24 05:40:00,
2013-02-23 23:45:00,25.2,20.2,30.03,SSE,151,0.0,0.0,81,0.00,,,0.26,WUHU216DAVISVP2,2013-02-24 05:45:00,
2013-02-23 23:50:00,25.1,20.1,30.03,SSE,151,0.0,0.0,81,0.00,,,0.26,WUHU216DAVISVP2,2013-02-24 05:50:00,
2013-02-23 23:55:00,25.0,19.9,30.03,SSE,151,0.0,0.0,81,0.00,,,0.26,WUHU216DAVISVP2,2013-02-24 05:55:00,